Regional Weather Roundup
Issued by NWS

Home | Current Version | Previous Version | Text Only | Print | Product List | Glossary Off
Versions: 1 2 3 4 5 6 7 8 9 10 11 12 13 14 15 16 17 18 19 20 21 22 23 24 25 26 27 28 29 30 31 32 33 34 35 36 37 38 39 40 41 42 43 44 45 46 47 48 49 50

000
ASUS43 KIND 152209
RWRIN

WEATHER ROUNDUP FOR INDIANA
NATIONAL WEATHER SERVICE INDIANAPOLIS IN
600 PM EDT TUE APR 15 2014

NOTE: "FAIR" INDICATES FEW OR NO CLOUDS BELOW 12,000 FEET WITH NO
SIGNIFICANT WEATHER AND/OR OBSTRUCTIONS TO VISIBILITY.

* - STATION DOES NOT REPORT WEATHER SUCH AS PRECIPITATION OR FOG.

+ - STATION NOT QUALITY CONTROLLED BY THE NATIONAL WEATHER SERVICE.
    USE DATA WITH CAUTION...ESPECIALLY DEWPOINT AND RELATIVE
    HUMIDITY OBSERVATIONS.

INZ001>003-010>013-019-020-152300-
NORTHWEST INDIANA

CITY           SKY/WX    TMP DP  RH WIND       PRES   REMARKS
GARY /AIRPORT/ MOSUNNY   36  18  48 E5G16     30.16F
LA PORTE +     SUNNY     34  12  40 NW5       30.16F WCI  29
MICHIGAN CITY+ SUNNY     32  12  43 CALM      30.17F
MONTICELLO +   CLOUDY    35  16  47 NW7       30.17R WCI  29
RENSSELAER +   CLOUDY    36  14  41 CALM      30.16F
VALPARAISO     PTSUNNY   34  13  41 W8        30.16S WCI  27

$$

LMZ046-743>745-152300-
SOUTHERN LAKE MICHIGAN

STATION/POSITION TIME  TEMP WIND        PRES
                       AIR  DIR/SP/G
                 (UTC) (F)  (DEG/KT/KT) (MB)
MICHIGAN CITY    2200   31   20/  5/  7   N/A

$$

INZ004-005-014>016-021>024-152300-
NORTH CENTRAL INDIANA

CITY           SKY/WX    TMP DP  RH WIND       PRES   REMARKS
ELKHART        MOSUNNY   34   7  32 NW12G18   30.16  WCI  25
GOSHEN         MOSUNNY   32  10  40 NW13G24   30.16R WCI  22
LOGANSPORT +   PTSUNNY   36  12  38 W9        30.17R
ROCHESTER +    MOSUNNY   37  10  32 N13G18    30.17R
SOUTH BEND     SUNNY     34  10  37 NW16G23   30.17R WCI  24
WARSAW +       MOSUNNY   32   9  37 NW9G22    30.16R WCI  24

$$

INZ006>009-017-018-025>027-152300-
NORTHEAST INDIANA

CITY           SKY/WX    TMP DP  RH WIND       PRES   REMARKS
ANGOLA *+      MOSUNNY   30  10  43 NW14      30.12R WCI  20
AUBURN +       MOSUNNY   32  10  40 NW16G22   30.15R WCI  21
FORT WAYNE     MOSUNNY   34  12  40 NW17G32   30.14R WCI  23

$$

INZ028-029-035-036-043>045-051>053-152300-
WEST CENTRAL INDIANA

CITY           SKY/WX    TMP DP  RH WIND       PRES   REMARKS
GREENCASTLE +  CLOUDY    37  16  41 NW6       30.18R
LAFAYETTE      CLOUDY    36  14  40 NW9       30.18R
TERRE HAUTE    CLOUDY    39  20  46 NW10      30.19R

$$

INZ030>032-037>040-046>048-054>057-064-065-152300-
CENTRAL INDIANA

CITY           SKY/WX    TMP DP  RH WIND       PRES   REMARKS
CP ATTERBURY + CLOUDY    37  19  48 NW14G21   30.17R
COLUMBUS       CLOUDY    37  19  48 MISG      30.18R
INDIANAPOLIS   PTSUNNY   35  17  47 N14       30.17R WCI  26
-EAGLE CREEK   CLOUDY    36  17  46 W14       30.16R
KOKOMO *+      MOSUNNY   36  16  44 NW10      30.16R
MARION +       PTSUNNY   35  12  38 NW10G23   30.16R HAZE    WCI  27
MT COMFORT *+  MOSUNNY   36  19  51 NW12G18   30.16S
SHELBYVILLE    PTSUNNY   40  19  43 N15       30.15S
ZIONSVILLE +   PTSUNNY   36  16  45 NW12      30.17R

$$

INZ033-034-041-042-049-050-058-059-152300-
EAST CENTRAL INDIANA

CITY           SKY/WX    TMP DP  RH WIND       PRES   REMARKS
MUNCIE         PTSUNNY   34  15  46 NW14      30.14R WCI  25

$$

INZ060-061-067>069-081>083-085>088-152300-
SOUTHWEST INDIANA

CITY           SKY/WX    TMP DP  RH WIND       PRES   REMARKS
EVANSVILLE     PTSUNNY   44  23  43 N9G18     30.21R
HUNTINGBURG *+ PTSUNNY   43  21  42 N13       30.20R
WASHINGTON +   PTSUNNY   41  24  50 N10       30.19S

$$

INZ062-063-066-070>080-084-089>092-152300-
SOUTH CENTRAL AND SOUTHEAST INDIANA

CITY           SKY/WX    TMP DP  RH WIND       PRES   REMARKS
BLOOMINGTON    CLOUDY    41  17  38 N10       30.17R
SEYMOUR +      PTSUNNY   39   3  22 N10G17    30.16

$$




USA.gov is the U.S. government's official web portal to all federal, state and local government web resources and services.